Location: Sebastopol
(38.4021°N, 122.8239°W)
Time: 15:18:16
(UTC+00:00)

ALOS - Pass Details

Date: 29 October 2020
Orbit: 684 x 684 km, 97.9° (Epoch: 01 December)

Event Time Altitude Azimuth Distance (km) Brightness Sun altitude
Rises 12:20:24 0° 19° (NNE) 3,055 5.9 -26.9°
Reaches altitude 10° 12:22:44 10° 25° (NNE) 2,135 5.1 -26.5°
Maximum altitude 12:27:13 46° 99° (E) 924 3.3 -25.6°
Drops below altitude 10° 12:31:40 10° 172° (S) 2,120 4.8 -24.7°
Sets 12:33:58 0° 179° (S) 3,031 5.6 -24.3°
